CW1084 Weather Reports


Display with metric or nautical units.
time (UTC)temp
F
wind
direction
speed
MPH
gust
MPH
rain 1hr
in
rain 24hr
in
rain mn
in
humidity
%
barometer
mb
20200716170553 83 159 2.0 8.0 0.00 0.00 0.00 70 1022.7
20200716170050 83 93 2.0 11.0 0.00 0.00 0.00 70 1022.8
20200716165549 83 135 4.0 11.0 0.00 0.00 0.00 71 1022.8
20200716165039 83 154 4.0 11.0 0.00 0.00 0.00 70 1022.8
20200716164546 83 93 4.0 11.0 0.00 0.00 0.00 72 1022.8
20200716164043 83 132 4.0 11.0 0.00 0.00 0.00 72 1022.9
20200716163536 82 86 3.0 10.0 0.00 0.00 0.00 74 1022.9
20200716163037 81 159 3.0 10.0 0.00 0.00 0.00 74 1022.7
20200716162537 81 141 3.0 10.0 0.00 0.00 0.00 75 1022.8
20200716162039 81 98 2.0 8.0 0.00 0.00 0.00 76 1022.8
20200716161533 81 84 3.0 8.0 0.00 0.00 0.00 75 1022.8
20200716161030 81 127 3.0 9.0 0.00 0.00 0.00 75 1022.8
20200716160530 81 111 3.0 9.0 0.00 0.00 0.00 75 1022.8
20200716160035 81 141 2.0 12.0 0.00 0.00 0.00 75 1022.9
20200716155536 81 103 2.0 12.0 0.00 0.00 0.00 75 1022.9
20200716155027 81 62 2.0 9.0 0.00 0.00 0.00 76 1022.7
20200716154527 81 180 4.0 11.0 0.00 0.00 0.00 75 1022.8
20200716154021 81 123 4.0 11.0 0.00 0.00 0.00 75 1022.8
20200716153523 81 182 4.0 10.0 0.00 0.00 0.00 76 1022.8
20200716153023 81 134 4.0 10.0 0.00 0.00 0.00 76 1022.8
20200716152524 80 169 4.0 12.0 0.00 0.00 0.00 77 1022.6
20200716152021 80 134 4.0 12.0 0.00 0.00 0.00 77 1022.7
20200716151517 80 142 4.0 10.0 0.00 0.00 0.00 77 1022.7
20200716151013 80 117 2.0 10.0 0.00 0.00 0.00 77 1022.6
20200716150503 80 96 2.0 7.0 0.00 0.00 0.00 78 1022.4
20200716145958 80 148 2.0 9.0 0.00 0.00 0.00 78 1022.3
20200716145459 80 207 2.0 9.0 0.00 0.00 0.00 79 1022.2
20200716144947 80 100 3.0 15.0 0.00 0.00 0.00 79 1022.1
20200716144448 80 77 4.0 15.0 0.00 0.00 0.00 79 1022.2
20200716143950 79 76 4.0 11.0 0.00 0.00 0.00 80 1022.1
20200716143429 79 128 3.0 11.0 0.00 0.00 0.00 81 1022.1
20200716142938 79 134 3.0 10.0 0.00 0.00 0.00 81 1022.1
20200716142430 79 105 4.0 10.0 0.00 0.00 0.00 81 1022.2
20200716141928 79 83 2.0 10.0 0.00 0.00 0.00 81 1022.2
20200716141428 79 97 1.0 5.0 0.00 0.00 0.00 82 1022.2
20200716140925 78 107 1.0 5.0 0.00 0.00 0.00 81 1022.3
20200716140421 78 152 1.0 8.0 0.00 0.00 0.00 82 1022.3
20200716135924 78 152 2.0 9.0 0.00 0.00 0.00 82 1022.2
20200716135415 78 101 3.0 9.0 0.00 0.00 0.00 82 1022.2
20200716134914 78 132 3.0 10.0 0.00 0.00 0.00 83 1022.1
20200716134412 78 113 3.0 10.0 0.00 0.00 0.00 84 1022.1
20200716133912 78 144 2.0 9.0 0.00 0.00 0.00 84 1022.3
20200716133407 78 167 2.0 12.0 0.00 0.00 0.00 84 1022.3
20200716132907 78 105 3.0 12.0 0.00 0.00 0.00 85 1022.3
20200716132402 78 149 3.0 10.0 0.00 0.00 0.00 85 1022.3
20200716131859 78 126 3.0 9.0 0.00 0.00 0.00 86 1022.2
20200716131401 77 105 3.0 11.0 0.00 0.00 0.00 86 1022.2
20200716130901 77 95 3.0 11.0 0.00 0.00 0.00 86 1022.3
20200716130403 77 149 3.0 10.0 0.00 0.00 0.00 87 1022.2
20200716125855 77 82 4.0 10.0 0.00 0.00 0.00 87 1022.2
20200716125355 77 128 4.0 11.0 0.00 0.00 0.00 87 1022.3
20200716124856 77 141 3.0 11.0 0.00 0.00 0.00 88 1022.3
20200716124349 77 167 3.0 10.0 0.00 0.00 0.00 89 1022.2
20200716123852 77 105 3.0 10.0 0.00 0.00 0.00 89 1022.2
20200716123343 76 153 3.0 10.0 0.00 0.00 0.00 89 1022.1
20200716122847 76 126 3.0 10.0 0.00 0.00 0.00 90 1022.2
20200716122345 76 140 3.0 12.0 0.00 0.00 0.00 90 1022.2
20200716121839 76 117 4.0 12.0 0.00 0.00 0.00 90 1022.1
20200716121338 76 99 2.0 9.0 0.00 0.00 0.00 91 1022.2
20200716120837 75 140 2.0 12.0 0.00 0.00 0.00 91 1022.1
20200716120329 75 113 2.0 12.0 0.00 0.00 0.00 91 1022.1
20200716115835 75 128 2.0 8.0 0.00 0.00 0.00 91 1022.2
20200716115333 75 137 2.0 8.0 0.00 0.00 0.00 91 1022.0
20200716114822 75 109 3.0 9.0 0.00 0.00 0.00 91 1022.1
20200716114324 75 101 2.0 9.0 0.00 0.00 0.00 91 1022.1
20200716113824 75 147 2.0 7.0 0.00 0.00 0.00 91 1022.1
20200716113336 75 157 2.0 7.0 0.00 0.00 0.00 91 1022.1
20200716112821 75 129 2.0 8.0 0.00 0.00 0.00 91 1022.1
20200716112321 75 132 3.0 8.0 0.00 0.00 0.00 91 1022.1
20200716111821 75 138 3.0 9.0 0.00 0.00 0.00 91 1022.1
20200716111309 75 133 2.0 9.0 0.00 0.00 0.00 91 1021.9
20200716110810 75 142 2.0 7.0 0.00 0.00 0.00 91 1021.9
20200716110255 75 129 2.0 7.0 0.00 0.00 0.00 91 1022.0
20200716105755 75 99 1.0 6.0 0.00 0.00 0.00 91 1022.1
20200716105238 75 95 1.0 9.0 0.00 0.00 0.00 91 1022.1
20200716104732 75 90 2.0 9.0 0.00 0.00 0.00 90 1022.1
20200716104216 75 98 1.0 9.0 0.00 0.00 0.00 90 1022.2
20200716103730 75 98 1.0 6.0 0.00 0.00 0.00 90 1022.2
20200716103208 75 101 0.0 5.0 0.00 0.00 0.00 90 1022.2
20200716102718 75 101 1.0 6.0 0.00 0.00 0.00 90 1022.1
20200716102153 75 102 1.0 6.0 0.00 0.00 0.00 90 1022.0
20200716101648 75 118 1.0 5.0 0.00 0.00 0.00 90 1021.9
20200716101132 75 111 1.0 8.0 0.00 0.00 0.00 90 1021.9
20200716100618 76 95 1.0 8.0 0.00 0.00 0.00 90 1021.8
20200716100120 76 101 1.0 7.0 0.00 0.00 0.00 90 1021.7
20200716095614 76 98 1.0 7.0 0.00 0.00 0.00 90 1021.6
20200716095123 76 128 1.0 7.0 0.00 0.00 0.00 90 1021.5
20200716094611 76 118 1.0 4.0 0.00 0.00 0.00 90 1021.5
20200716094108 76 134 1.0 4.0 0.00 0.00 0.00 90 1021.3
20200716093602 76 141 1.0 7.0 0.00 0.00 0.00 90 1021.3
20200716093117 76 143 2.0 7.0 0.00 0.00 0.00 90 1021.3
20200716092543 76 128 1.0 6.0 0.00 0.00 0.00 90 1021.3
20200716092036 76 134 1.0 7.0 0.00 0.00 0.00 90 1021.3
20200716091536 76 109 1.0 7.0 0.00 0.00 0.00 90 1021.3
20200716091031 76 119 1.0 6.0 0.00 0.00 0.00 90 1021.3
20200716090528 76 142 1.0 7.0 0.00 0.00 0.00 89 1021.3
20200716090027 76 107 1.0 7.0 0.00 0.00 0.00 89 1021.2
20200716085540 76 135 2.0 7.0 0.00 0.00 0.00 89 1021.1
20200716085003 76 134 2.0 7.0 0.00 0.00 0.00 89 1021.0
20200716084504 76 136 1.0 6.0 0.00 0.00 0.00 89 1020.9
20200716083954 76 109 0.0 4.0 0.00 0.00 0.00 89 1020.9
20200716083459 76 122 0.0 2.0 0.00 0.00 0.00 89 1020.9
20200716082938 76 123 1.0 8.0 0.00 0.00 0.00 88 1020.9
20200716082430 76 122 1.0 8.0 0.00 0.00 0.00 88 1020.9
20200716081939 76 92 0.0 6.0 0.00 0.00 0.00 88 1020.9
20200716081432 76 94 1.0 7.0 0.00 0.00 0.00 88 1020.9
20200716080901 76 85 1.0 7.0 0.00 0.00 0.00 88 1020.8
20200716080357 76 181 1.0 6.0 0.00 0.00 0.00 88 1020.9
20200716075852 76 138 2.0 8.0 0.00 0.00 0.00 88 1020.8
20200716075351 76 140 2.0 8.0 0.00 0.00 0.00 88 1020.8
20200716074853 76 112 2.0 7.0 0.00 0.00 0.00 88 1021.0
20200716074344 76 139 2.0 7.0 0.00 0.00 0.00 88 1020.9
20200716073848 76 96 1.0 7.0 0.00 0.00 0.00 88 1021.0
20200716073350 76 115 1.0 7.0 0.00 0.00 0.00 88 1020.9
20200716072844 76 115 1.0 8.0 0.00 0.00 0.00 87 1020.9
20200716072342 76 136 1.0 8.0 0.00 0.00 0.00 87 1020.8
20200716071852 76 107 2.0 7.0 0.00 0.00 0.00 87 1020.9
20200716071340 76 130 2.0 7.0 0.00 0.00 0.00 87 1020.9
20200716070839 76 128 1.0 6.0 0.00 0.00 0.00 88 1020.9
20200716070340 76 107 1.0 7.0 0.00 0.00 0.00 88 1021.0
20200716065818 76 107 1.0 7.0 0.00 0.00 0.00 88 1021.1
20200716065319 76 125 2.0 8.0 0.00 0.00 0.00 87 1021.2
20200716064812 76 120 2.0 10.0 0.00 0.00 0.00 87 1021.2
20200716064310 76 138 2.0 10.0 0.00 0.00 0.00 87 1021.3
20200716063803 76 148 1.0 8.0 0.00 0.00 0.00 87 1021.3
20200716063302 76 134 2.0 9.0 0.00 0.00 0.00 87 1021.3
20200716062802 76 132 2.0 9.0 0.00 0.00 0.00 87 1021.3
20200716062303 76 105 1.0 6.0 0.00 0.00 0.00 87 1021.3
20200716061808 76 125 1.0 7.0 0.00 0.00 0.00 87 1021.3
20200716061252 76 125 1.0 8.0 0.00 0.00 0.00 87 1021.4
20200716060746 76 140 2.0 9.0 0.00 0.00 0.00 87 1021.4
20200716060252 76 123 2.0 9.0 0.00 0.00 0.00 87 1021.4
20200716055744 76 134 1.0 6.0 0.00 0.00 0.00 87 1021.4
20200716055236 76 126 2.0 10.0 0.00 0.00 0.00 87 1021.4
20200716054732 76 146 2.0 10.0 0.00 0.00 0.00 87 1021.3
20200716054236 76 145 1.0 9.0 0.00 0.00 0.00 87 1021.2
20200716053735 76 115 1.0 5.0 0.00 0.00 0.00 86 1021.3
20200716053221 76 113 1.0 7.0 0.00 0.00 0.00 86 1021.3
20200716052656 76 123 2.0 7.0 0.00 0.00 0.00 86 1021.4
20200716052203 76 121 2.0 7.0 0.00 0.00 0.00 86 1021.4
20200716051625 76 110 2.0 7.0 0.00 0.00 0.00 86 1021.4
20200716051125 76 130 2.0 7.0 0.00 0.00 0.00 86 1021.3
20200716050609 76 138 2.0 7.0 0.00 0.00 0.00 86 1021.3
20200716050058 76 115 2.0 6.0 0.00 0.00 0.00 86 1021.1
20200716045556 76 153 2.0 7.0 0.00 0.00 0.00 86 1021.1
20200716045056 76 134 2.0 7.0 0.00 0.00 0.00 86 1021.0
20200716044558 76 138 3.0 9.0 0.00 0.00 0.00 86 1020.8
20200716044050 76 106 3.0 13.0 0.00 0.00 0.00 86 1020.8
20200716043555 76 130 3.0 13.0 0.00 0.00 0.00 86 1020.7
20200716043051 76 189 3.0 10.0 0.00 0.00 0.00 85 1020.7
20200716042554 76 96 3.0 12.0 0.00 0.00 0.00 85 1020.5
20200716042047 76 96 2.0 12.0 0.00 0.00 0.00 85 1020.5
20200716041551 76 99 3.0 9.0 0.00 0.00 0.00 85 1020.4
20200716041045 76 110 2.0 10.0 0.00 0.00 0.00 85 1020.3
20200716040545 76 132 2.0 10.0 0.00 0.00 0.00 85 1020.3
20200716040044 76 129 2.0 11.0 0.00 0.00 0.00 85 1020.3
20200716035601 76 134 3.0 11.0 0.00 0.00 0.00 85 1020.3
20200716035037 76 111 3.0 14.0 0.00 0.00 0.00 85 1020.2
20200716034546 76 161 3.0 14.0 0.00 0.00 0.00 85 1020.1
20200716034050 76 112 3.0 16.0 0.00 0.00 0.00 85 1020.1
20200716033548 76 123 3.0 16.0 0.00 0.00 0.00 85 1020.0
20200716033019 76 109 2.0 14.0 0.00 0.00 0.00 85 1020.0
20200716032507 76 134 3.0 14.0 0.00 0.00 0.00 85 1019.9
20200716031958 76 200 3.0 14.0 0.00 0.00 0.00 85 1019.9
20200716031501 76 97 3.0 9.0 0.00 0.00 0.00 85 1019.8
20200716030958 76 28 2.0 10.0 0.00 0.00 0.00 85 1019.9
20200716030459 76 98 2.0 10.0 0.00 0.00 0.00 84 1019.8
20200716025947 77 145 2.0 9.0 0.00 0.00 0.00 84 1019.7
20200716025440 77 127 2.0 8.0 0.00 0.00 0.00 84 1019.8
20200716024937 77 142 1.0 8.0 0.00 0.00 0.00 84 1019.8
20200716024431 77 140 2.0 10.0 0.00 0.00 0.00 84 1019.8
20200716023930 77 114 2.0 10.0 0.00 0.00 0.00 84 1019.7
20200716023433 77 92 2.0 8.0 0.00 0.00 0.00 84 1019.7
20200716022922 77 87 2.0 9.0 0.00 0.00 0.00 84 1019.7
20200716022422 77 143 2.0 10.0 0.00 0.00 0.00 84 1019.7
20200716021922 77 144 3.0 10.0 0.00 0.00 0.00 84 1019.7
20200716021417 77 150 3.0 10.0 0.00 0.00 0.00 83 1019.8
20200716020913 77 170 3.0 11.0 0.00 0.00 0.00 83 1019.7
20200716020415 78 82 3.0 13.0 0.00 0.00 0.00 82 1019.7
20200716015913 78 131 3.0 13.0 0.00 0.00 0.00 82 1019.7
20200716015405 78 89 3.0 12.0 0.00 0.00 0.00 82 1019.7
20200716014859 78 123 4.0 12.0 0.00 0.00 0.00 81 1019.8
20200716014403 78 161 3.0 14.0 0.00 0.00 0.00 81 1019.8
20200716013852 78 148 4.0 14.0 0.00 0.00 0.00 81 1019.6
20200716013355 78 105 5.0 13.0 0.00 0.00 0.00 81 1019.6
20200716012850 79 104 4.0 13.0 0.00 0.00 0.00 80 1019.5
20200716012352 79 138 3.0 15.0 0.00 0.00 0.00 80 1019.5
20200716011849 79 157 4.0 15.0 0.00 0.00 0.00 80 1019.4
20200716011336 79 135 5.0 11.0 0.00 0.00 0.00 79 1019.2
20200716010834 80 145 5.0 12.0 0.00 0.00 0.00 79 1019.1
20200716010342 80 153 4.0 12.0 0.00 0.00 0.00 78 1019.1
20200716005836 80 117 3.0 10.0 0.00 0.00 0.00 78 1019.0
20200716005337 80 158 4.0 10.0 0.00 0.00 0.00 77 1019.1
20200716004831 81 134 3.0 10.0 0.00 0.00 0.00 76 1019.1
20200716004329 81 85 2.0 8.0 0.00 0.00 0.00 76 1019.1
20200716003836 81 132 3.0 10.0 0.00 0.00 0.00 74 1019.1
20200716003321 81 128 3.0 10.0 0.00 0.00 0.00 71 1019.0
20200716002816 81 81 4.0 10.0 0.00 0.00 0.00 71 1019.0
20200716002310 81 114 5.0 13.0 0.00 0.00 0.00 71 1019.0
20200716001811 82 143 4.0 14.0 0.00 0.00 0.00 71 1018.9
20200716001307 82 122 4.0 14.0 0.00 0.00 0.00 71 1019.0
20200716000821 82 154 4.0 13.0 0.00 0.00 0.00 71 1019.0
20200716000303 82 144 4.0 13.0 0.00 0.00 0.00 70 1019.0
20200715235808 82 98 4.0 11.0 0.00 0.00 0.00 70 1019.0
20200715235300 83 93 3.0 11.0 0.00 0.00 0.00 69 1019.0
20200715234752 83 116 3.0 14.0 0.00 0.00 0.00 68 1018.9
20200715234252 83 150 3.0 14.0 0.00 0.00 0.00 67 1019.0
20200715233801 83 128 3.0 11.0 0.00 0.00 0.00 67 1018.9
20200715233252 83 150 3.0 12.0 0.00 0.00 0.00 67 1018.8
20200715232808 84 161 3.0 12.0 0.00 0.00 0.00 66 1018.8
20200715232254 84 196 2.0 9.0 0.00 0.00 0.00 63 1018.7
20200715231742 84 132 1.0 8.0 0.00 0.00 0.00 60 1018.7
20200715231241 85 106 0.0 4.0 0.00 0.00 0.00 62 1018.7
20200715230736 85 106 0.0 3.0 0.00 0.00 0.00 62 1018.7
20200715230217 85 106 0.0 3.0 0.00 0.00 0.00 63 1018.7
20200715225731 85 106 0.0 1.0 0.00 0.00 0.00 62 1018.6
20200715225202 85 106 0.0 1.0 0.00 0.00 0.00 61 1018.6
20200715224653 85 106 0.0 1.0 0.00 0.00 0.00 60 1018.5
20200715224145 86 106 0.0 1.0 0.00 0.00 0.00 59 1018.4
20200715223644 86 106 0.0 1.0 0.00 0.00 0.00 59 1018.4
20200715223145 86 106 0.0 1.0 0.00 0.00 0.00 58 1018.4
20200715222638 86 106 0.0 1.0 0.00 0.00 0.00 56 1018.4
20200715222137 86 106 0.0 2.0 0.00 0.00 0.00 53 1018.4
20200715221632 87 106 0.0 2.0 0.00 0.00 0.00 55 1018.5
20200715221132 87 106 0.0 3.0 0.00 0.00 0.00 54 1018.5
20200715220610 87 106 0.0 3.0 0.00 0.00 0.00 53 1018.5
20200715220101 87 106 0.0 2.0 0.00 0.00 0.00 54 1018.6
20200715215608 88 106 0.0 3.0 0.00 0.00 0.00 52 1018.6
20200715215045 88 106 1.0 4.0 0.00 0.00 0.00 50 1018.6
20200715214536 88 106 0.0 4.0 0.00 0.00 0.00 50 1018.8
20200715214041 89 106 0.0 1.0 0.00 0.00 0.00 52 1018.8
20200715213528 89 106 0.0 2.0 0.00 0.00 0.00 53 1018.8
20200715213026 89 106 0.0 2.0 0.00 0.00 0.00 52 1018.9
20200715212516 89 106 0.0 3.0 0.00 0.00 0.00 49 1018.8
20200715212017 89 106 1.0 3.0 0.00 0.00 0.00 53 1018.8
20200715211508 90 106 1.0 3.0 0.00 0.00 0.00 51 1018.7
20200715210942 90 106 0.0 2.0 0.00 0.00 0.00 51 1018.8
20200715210442 90 106 0.0 3.0 0.00 0.00 0.00 52 1018.9
20200715205919 90 106 0.0 3.0 0.00 0.00 0.00 48 1018.9
20200715205412 90 106 0.0 1.0 0.00 0.00 0.00 48 1018.9
20200715204918 91 106 0.0 4.0 0.00 0.00 0.00 48 1018.8
20200715204412 91 106 1.0 4.0 0.00 0.00 0.00 46 1018.8
20200715203857 91 105 1.0 6.0 0.00 0.00 0.00 47 1018.8
20200715203352 91 105 1.0 6.0 0.00 0.00 0.00 47 1018.8
20200715202843 91 104 1.0 5.0 0.00 0.00 0.00 47 1018.9
20200715202341 91 105 1.0 5.0 0.00 0.00 0.00 48 1018.8
20200715201844 91 100 0.0 5.0 0.00 0.00 0.00 47 1018.8
20200715201337 91 100 0.0 5.0 0.00 0.00 0.00 48 1018.8
20200715200831 90 100 1.0 6.0 0.00 0.00 0.00 49 1018.7
20200715200330 90 100 2.0 6.0 0.00 0.00 0.00 50 1018.8
20200715195818 90 105 1.0 6.0 0.00 0.00 0.00 50 1018.9
20200715195318 90 103 2.0 8.0 0.00 0.00 0.00 50 1018.9
20200715194808 91 95 1.0 8.0 0.00 0.00 0.00 50 1019.0
20200715194300 90 103 1.0 7.0 0.00 0.00 0.00 50 1019.1
20200715193801 91 103 1.0 7.0 0.00 0.00 0.00 49 1019.1
20200715193259 91 126 1.0 4.0 0.00 0.00 0.00 50 1019.2
20200715192810 90 126 1.0 4.0 0.00 0.00 0.00 50 1019.1
20200715192241 90 126 1.0 4.0 0.00 0.00 0.00 50 1019.3
20200715191747 90 133 1.0 6.0 0.00 0.00 0.00 50 1019.3
20200715191241 90 134 1.0 6.0 0.00 0.00 0.00 50 1019.3
20200715190744 90 112 1.0 4.0 0.00 0.00 0.00 51 1019.3
20200715190225 90 112 1.0 4.0 0.00 0.00 0.00 49 1019.3
20200715185730 90 119 0.0 4.0 0.00 0.00 0.00 50 1019.3
20200715185216 90 123 1.0 7.0 0.00 0.00 0.00 50 1019.3
20200715184719 89 128 1.0 7.0 0.00 0.00 0.00 51 1019.4
20200715184216 89 117 0.0 3.0 0.00 0.00 0.00 51 1019.4
20200715183713 89 117 1.0 7.0 0.00 0.00 0.00 49 1019.4
20200715183209 89 117 2.0 7.0 0.00 0.00 0.00 49 1019.4
20200715182719 89 114 1.0 7.0 0.00 0.00 0.00 50 1019.3
20200715182209 89 123 1.0 4.0 0.00 0.00 0.00 53 1019.4
20200715181710 89 123 1.0 6.0 0.00 0.00 0.00 51 1019.4
20200715181200 88 131 2.0 7.0 0.00 0.00 0.00 51 1019.5
20200715180655 88 131 2.0 7.0 0.00 0.00 0.00 54 1019.5
20200715180156 88 113 1.0 7.0 0.00 0.00 0.00 55 1019.6
20200715175649 88 105 1.0 7.0 0.00 0.00 0.00 54 1019.5
20200715175140 88 107 1.0 5.0 0.00 0.00 0.00 53 1019.6
20200715174637 88 107 1.0 7.0 0.00 0.00 0.00 52 1019.6
20200715174137 88 104 1.0 7.0 0.00 0.00 0.00 52 1019.7
20200715173629 88 111 1.0 7.0 0.00 0.00 0.00 53 1019.7
20200715173125 88 111 1.0 7.0 0.00 0.00 0.00 52 1019.6
20200715172606 88 115 2.0 8.0 0.00 0.00 0.00 53 1019.6
20200715172053 88 116 2.0 8.0 0.00 0.00 0.00 53 1019.6
20200715171549 88 108 2.0 7.0 0.00 0.00 0.00 52 1019.6
20200715171042 88 108 2.0 7.0 0.00 0.00 0.00 52 1019.6